Regional Weather Roundup
Issued by NWS Cleveland, OH

Home | Current Version | Previous Version | Graphics & Text | Print | Product List | Glossary On
Versions: 1 2 3 4 5 6 7 8 9 10 11 12 13 14 15 16 17 18 19 20 21 22 23 24 25 26 27 28 29 30 31 32 33 34 35 36 37 38 39 40 41 42 43 44 45 46 47 48 49 50
000
ASUS41 KCLE 281900
RWRCLE
OHIO REGIONAL WEATHER ROUNDUP
NATIONAL WEATHER SERVICE WILMINGTON, OH
300 PM EDT THU JUL 28 2016

NOTE: "FAIR" INDICATES FEW OR NO CLOUDS BELOW 12,000 FEET WITH NO
SIGNIFICANT WEATHER AND/OR OBSTRUCTIONS TO VISIBILITY.

OHZ001>008-015>018-024>027-034-035-043-044-282000-
   NORTHWEST OHIO

CITY           SKY/WX    TMP DP  RH WIND       PRES   REMARKS
DEFIANCE       PTSUNNY   85  68  56 E8        29.89F
FINDLAY        FAIR      88  62  41 CALM      29.87F
TOLEDO EXPRESS FAIR      83  69  62 NE5       29.89S
TOLEDO EXEC    FAIR      84  70  62 NE9       29.90S
LIMA           FAIR      86  64  47 S3        29.88F
$$

OHZ009>014-019>023-028>033-038-089-282000-
   NORTHEAST OHIO

CITY           SKY/WX    TMP DP  RH WIND       PRES   REMARKS
CLE-HOPKINS    CLOUDY    83  63  50 N8        29.91S
CLE-LAKEFRONT  FAIR      81  67  62 N7        29.88F
CUY CO. ARPT   CLOUDY   N/A N/A N/A E7        29.90F
LORAIN-ELYRIA  FAIR      82  64  54 N7        29.90S
ASHTABULA      FAIR      83  68  60 CALM      29.89F
AKRON-CANTON   CLOUDY    78  65  63 S13       29.92F
WOOSTER        NOT AVBL
MANSFIELD      FAIR      84  63  49 NE7       29.91F
YOUNGSTOWN     CLOUDY    80  70  71 S9        29.90F
$$

OHZ042-051>053-060>062-070>072-077>081-282000-
  SOUTHWEST OHIO

CITY           SKY/WX    TMP DP  RH WIND       PRES   REMARKS
CINC-COVINGTON CLOUDY    79  71  76 VRB3      29.90F
CINC-LUNKEN    PTSUNNY   79  73  82 S8        29.89F
HAMILTON       PTSUNNY   82  72  71 VRB3      29.89F
DAYTON         NOT AVBL
WRIGHT-PAT AFB NOT AVBL
DAYTON GENERAL FAIR      81  69  67 SW6       29.89S
WILMINGTON     CLOUDY    78  70  76 W5        29.90S
$$

OHZ036-037-039>041-045>050-054>059-063>069-073>076-082>088-282000-
  CENTRAL AND SOUTHEAST OHIO

CITY           SKY/WX    TMP DP  RH WIND       PRES   REMARKS
COLUMBUS       CLOUDY    77  69  76 SW5       29.88F
OSU AIRPORT    CLOUDY    79  71  76 S5        29.88F
BOLTON FIELD   NOT AVBL
RICKENBACK AFB NOT AVBL
NEWARK         CLOUDY    78  72  81 S3        29.89F
MARION         CLOUDY    84  67  56 E5        29.89F
LANCASTER      LGT RAIN  75  72  90 S3        29.89F
ZANESVILLE     LGT RAIN  74  70  87 E7        29.92S
NEW PHILLY     FAIR      75  68  78 VRB6      29.92F
$$



USA.gov is the U.S. government's official web portal to all federal, state and local government web resources and services.